Погода в Мамалыге

Украина / Черновицкая область     48°15′20″N   26°35′14″E
темп.,
°C
ветер,
м/с
пор.,
м/с
влажн.,
%
обл.,
%
осадки,
мм/ч
давл.,
гПа
погр.,
м
26 февраля, пт
пт2623:00+5зюз11850 0.0 103122
02:00+5ююз11870 0.0 103022
05:00+4зсз11830 0.0 102822
08:00+4зюз12740 0.0 102822
11:00+9з12610 0.0 1026142
14:00+13з23560 0.0 1024282
17:00+11з11680 0.0 102222
20:00+8зюз11710 0.0 102222
27 февраля, сб
сб2723:00+7з23780 0.0 102223
02:00+5зсз48870 0.0 1023174
05:00+5сз5119070 0.1 1022516
08:00+4зсз6118984 0.3 1023658
11:00+5сз71179100 0.6 10231142
14:00+6сз81269100 0.7 10231372
17:00+4сз8128584 0.1 10231042
20:00+4зсз6138493 0.3 10241031
28 февраля, вс
вс2823:00+3сз8148092 0.0 1025907
02:00+2сз7129694 0.7 1026723
05:00+2сз81392100 1.4 1026838
08:00+1сз71188100 1.5 1028925
11:00+3сз7107697 0.2 10291075
14:00+3сз7107098 0.3 10291191
17:00+2сз71172100 0.1 10291210
20:00+2сз61071100 0.1 10311052
1 марта, пн
пн123:00+1зсз6127981 0.0 1031430
02:00+1сз6118489 0.0 1030368
05:00+1сз599790 0.3 1030493
08:00+2сз489895 0.8 1031426
11:00+4с578499 0.2 1033713
14:00+3сз468999 0.4 1034513
17:00+4сз477997 0.1 1034733
20:00+3зсз489198 0.3 1036358
2 марта, вт
вт223:00+2зсз4887100 0.0 1037342
02:00+2зсз498497 0.1 1036292
05:00+2зсз51084100 0.0 1036337
08:00+2зсз5108894 0.0 1036307
11:00+6сз7107590 0.0 1035607
14:00+8сз7107094 0.0 1034665
17:00+8сз6117169 0.0 1033594
20:00+5сз4138458 0.0 1033417